Overview Statistics Trail Chart Weather Telemetry Raw packets
 

This is the latest recevied weather packets stored in our database for station/object W0WFX-2. If no packets are shown the sender has not sent any weather packets the latest 10 day(s).

<< 1 2 3 4 5 >>
Time Temp. Humidity Pressure Rain* Wind** Luminosity Snow
1788646019 38.33° C 39% 1012.1 hPa 0 mm - 346 W/m² -
1788645715 38.89° C 39% 1012.3 hPa 0 mm - 384 W/m² -
1788645414 38.89° C 37% 1012.2 hPa 0 mm - 413 W/m² -
1788645110 38.89° C 38% 1012.1 hPa 0 mm - 432 W/m² -
1788644806 38.33° C 38% 1012.3 hPa 0 mm - 428 W/m² -
1788644501 37.78° C 38% 1012.3 hPa 0 mm - 201 W/m² -
1788644196 37.78° C 39% 1012.3 hPa 0 mm - 99 W/m² -
1788643892 37.78° C 39% 1012.5 hPa 0 mm - 114 W/m² -
1788643587 37.78° C 35% 1012.4 hPa 0 mm - 135 W/m² -
1788643286 37.78° C 34% 1012.2 hPa 0 mm - 135 W/m² -
1788642981 38.33° C 33% 1012.7 hPa 0 mm - 117 W/m² -
1788642677 38.33° C 35% 1012.6 hPa 0 mm - 107 W/m² -
1788642373 37.78° C 35% 1012.7 hPa 0 mm - 114 W/m² -
1788642067 37.78° C 35% 1012.7 hPa 0 mm - 107 W/m² -
1788641767 37.78° C 34% 1012.7 hPa 0 mm - 98 W/m² -
1788641466 37.22° C 36% 1012.7 hPa 0 mm - 103 W/m² -
1788641161 36.67° C 37% 1012.8 hPa 0 mm - 108 W/m² -
1788640856 36.11° C 38% 1012.7 hPa 0 mm - 94 W/m² -
1788640556 36.67° C 37% 1012.9 hPa 0 mm - 100 W/m² -
1788640251 37.78° C 36% 1012.9 hPa 0 mm - 115 W/m² -
1788639947 37.78° C 34% 1013.1 hPa 0 mm - 109 W/m² -
1788639642 37.78° C 36% 1013.1 hPa 0 mm - 129 W/m² -
1788639338 37.78° C 37% 1013.2 hPa 0 mm - 135 W/m² -
1788639037 37.78° C 36% 1013.1 hPa 0 mm - 122 W/m² -
1788638733 38.33° C 35% 1013.4 hPa 0 mm - 128 W/m² -

* Rain latest hour (hover to see other rain measurements)
** Current wind speed in m/s (hover to see current wind gust speed)